Rechercher aéroport 
image banner adimage banner adimage banner ad
image banner ad

SVOZ - Banco Occidental De Descuento

Situé à Maracaibo, Venezuela

ICAO - SVOZ, IATA -

Données fournies par Airmate  

Information générale

Coordonnées: N10°39'57" W71°37'6"
Élévation : 209 feet MSL.
 
Voir autres Aéroports à Apure

Données opérationnelles

Special qualification required
Heure actuelle UTC:
Heure actuelle locale:
Météo à : SVMC - Maracaibo / La Chinita Intl ( 17 km )
METAR: SVMC 242303Z AUTO NIL
TAF: TAF SVMC 242200Z 2500/2600 16002KT 9999 SCT016 TX32/2517Z TN24/2507Z TEMPO 2500/2504 17004KT 9000 DZ BKN010
Voir NOTAMs / SUP AIP / TFR affectant cet aéroport [VIEW]
Fréquences de communication: [VIEW]

Pistes:

Coordonnées de l'aéroport

Adresse: Maracaibo Venezuela

Vue satellite de SVOZ